This is the latest recevied weather packets stored in our database for station/object KA8DUX-2. If no packets are shown the sender has not sent any weather packets the latest 10 day(s).
| Time | Temp. | Humidity | Pressure | Rain* | Wind** | Luminosity | Snow |
|---|---|---|---|---|---|---|---|
| 1778037562 | 6.11° C | 71% | 1008.5 hPa | 0 mm | - | 0 W/m² | - |
| 1778037260 | 6.11° C | 71% | 1008.6 hPa | 0 mm | - | 0 W/m² | - |
| 1778036957 | 6.11° C | 70% | 1008.7 hPa | 0 mm | - | 0 W/m² | - |
| 1778036655 | 6.11° C | 70% | 1008.7 hPa | 0 mm | - | 0 W/m² | - |
| 1778036352 | 6.11° C | 69% | 1008.7 hPa | 0 mm | - | 0 W/m² | - |
| 1778036049 | 6.67° C | 69% | 1008.6 hPa | 0 mm | - | 0 W/m² | - |
| 1778035746 | 6.67° C | 69% | 1008.4 hPa | 0 mm | - | 0 W/m² | - |
| 1778035443 | 6.67° C | 68% | 1008.2 hPa | 0 mm | - | 0 W/m² | - |
| 1778035138 | 6.67° C | 67% | 1008.3 hPa | 0 mm | - | 0 W/m² | - |
| 1778034836 | 6.67° C | 68% | 1008.1 hPa | 0 mm | - | 0 W/m² | - |
| 1778034532 | 6.67° C | 67% | 1008.2 hPa | 0 mm | - | 0 W/m² | - |
| 1778034230 | 6.67° C | 67% | 1008.3 hPa | 0 mm | - | 0 W/m² | - |
| 1778033928 | 6.67° C | 67% | 1008.2 hPa | 0 mm | - | 0 W/m² | - |
| 1778033624 | 6.67° C | 67% | 1008 hPa | 0 mm | - | 0 W/m² | - |
| 1778033321 | 6.67° C | 66% | 1008 hPa | 0 mm | - | 0 W/m² | - |
| 1778033019 | 6.67° C | 66% | 1008 hPa | 0 mm | - | 0 W/m² | - |
| 1778032716 | 6.67° C | 65% | 1008.1 hPa | 0 mm | - | 0 W/m² | - |
| 1778032414 | 6.67° C | 65% | 1008.1 hPa | 0 mm | - | 0 W/m² | - |
| 1778032110 | 6.67° C | 63% | 1007.8 hPa | 0 mm | - | 0 W/m² | - |
| 1778031807 | 7.22° C | 64% | 1007.7 hPa | 0 mm | - | 0 W/m² | - |
| 1778031504 | 7.22° C | 62% | 1007.7 hPa | 0 mm | - | 0 W/m² | - |
| 1778031201 | 7.22° C | 61% | 1007.6 hPa | 0 mm | - | 0 W/m² | - |
| 1778030897 | 7.78° C | 63% | 1007.4 hPa | 0 mm | - | 0 W/m² | - |
| 1778030595 | 7.78° C | 60% | 1007.6 hPa | 0 mm | - | 0 W/m² | - |
| 1778030292 | 7.78° C | 58% | 1007.3 hPa | 0 mm | - | 0 W/m² | - |
* Rain latest hour (hover to see other rain measurements)
** Current wind speed in m/s (hover to see current wind gust speed)